Location: Aurora Center
(43.5271°N, 98.5894°W)
Time: 07:09:36
(UTC-05:00)

deb Explorer IX - Visible Passes

Search period start: 19 July 2024 00:00
Search period end: 29 July 2024 00:00
Orbit: 510 x 879 km, 38.7° (Epoch: 18 July)

Date Brightness Start Highest point End Pass type
(mag) Time Alt. Az. Time Alt. Az. Time Alt. Az.
19 Jul ? 01:11:39 10° W 01:12:28 14° WSW 01:12:28 14° WSW visible
19 Jul ? 22:24:57 10° SW 22:30:14 39° SSE 22:34:37 12° E visible
20 Jul ? 00:08:45 10° WSW 00:13:14 46° SSW 00:13:14 46° SSW visible
20 Jul ? 23:05:51 10° WSW 23:11:20 50° S 23:13:45 29° ESE visible
21 Jul ? 00:50:04 10° W 00:52:21 23° WSW 00:52:21 23° WSW visible
21 Jul ? 22:02:59 10° WSW 22:08:33 46° S 22:13:40 10° E visible
21 Jul ? 23:46:59 10° W 23:52:24 50° S 23:52:40 49° S visible
22 Jul ? 22:43:56 10° WSW 22:49:34 53° S 22:52:52 22° ESE visible
23 Jul ? 00:28:15 10° W 00:31:27 29° WSW 00:31:27 29° WSW visible
23 Jul ? 21:40:53 10° WSW 21:46:38 51° S 21:51:58 10° E visible
23 Jul ? 23:25:01 10° W 23:30:30 47° SSW 23:31:32 41° SSE visible
24 Jul ? 01:09:48 10° W 01:10:06 11° WSW 01:10:06 11° WSW visible
24 Jul ? 22:21:49 10° W 22:27:32 53° S 22:31:32 18° ESE visible
25 Jul ? 00:06:16 10° W 00:10:06 29° SW 00:10:06 29° SW visible
25 Jul ? 23:02:50 10° W 23:08:19 42° SSW 23:10:02 33° SSE visible
26 Jul ? 00:48:00 10° WSW 00:48:36 12° WSW 00:48:36 12° WSW visible
26 Jul ? 21:59:29 10° W 22:05:14 50° S 22:09:55 14° ESE visible
26 Jul ? 23:44:05 10° W 23:48:29 26° SSW 23:48:29 26° SSW visible
27 Jul ? 22:40:28 10° W 22:45:51 36° SSW 22:48:19 25° SSE visible
28 Jul ? 00:26:21 10° WSW 00:26:52 11° WSW 00:26:52 11° WSW visible
28 Jul ? 21:36:57 10° W 21:42:41 46° SSW 21:48:06 10° ESE visible
28 Jul ? 23:21:49 10° W 23:26:09 21° SSW 23:26:40 21° SSW visible
